• In Deutschland
  • Länderverzeichnis
  • Für 7 Tage
  • Wassertemperatur
  • Satellitenkarten
  • Wetterkarte
  • Widgets
  • user-avatar
    Anmelden

    Stündliche Wetter Mykhailivtsi

    Heute, 21 Mai, Montag

    Zeit Temperatur Niederschläge Wind Luftdruck Luftfeuchtigkeit
    00:00 +10°C° 0 mm 2 m/S 740 mmHg 80%
    01:00 +9°C° 0 mm 2 m/S 740 mmHg 81%
    02:00 +9°C° 0 mm 1 m/S 740 mmHg 83%
    03:00 +9°C° 0 mm 1 m/S 740 mmHg 84%
    04:00 +9°C° 0 mm 1 m/S 740 mmHg 84%
    05:00 +8°C° 0 mm 2 m/S 740 mmHg 84%
    06:00 +10°C° 0 mm 2 m/S 740 mmHg 78%
    07:00 +13°C° 0 mm 2 m/S 740 mmHg 73%
    08:00 +14°C° 0 mm 3 m/S 740 mmHg 67%
    09:00 +16°C° 0 mm 3 m/S 740 mmHg 62%
    10:00 +17°C° 0 mm 3 m/S 740 mmHg 57%
    11:00 +18°C° 0 mm 3 m/S 740 mmHg 51%
    12:00 +18°C° 0 mm 3 m/S 740 mmHg 51%
    13:00 +19°C° 0 mm 3 m/S 740 mmHg 50%
    14:00 +19°C° 0 mm 2 m/S 740 mmHg 49%
    15:00 +19°C° 0 mm 2 m/S 739 mmHg 51%
    16:00 +19°C° 0 mm 2 m/S 739 mmHg 52%
    17:00 +19°C° 0 mm 2 m/S 739 mmHg 54%
    18:00 +17°C° 0 mm 2 m/S 739 mmHg 61%
    19:00 +15°C° 0 mm 2 m/S 739 mmHg 68%
    20:00 +14°C° 0 mm 2 m/S 739 mmHg 75%
    21:00 +13°C° 0 mm 2 m/S 739 mmHg 78%
    22:00 +12°C° 0 mm 2 m/S 739 mmHg 81%
    23:00 +10°C° 0 mm 3 m/S 739 mmHg 84%

    Morgen, 22 Mai, Dienstag

    Zeit Temperatur Niederschläge Wind Luftdruck Luftfeuchtigkeit
    00:00 +10°C° 0 mm 2 m/S 739 mmHg 85%
    01:00 +10°C° 0 mm 2 m/S 739 mmHg 85%
    02:00 +9°C° 0 mm 2 m/S 739 mmHg 86%
    03:00 +9°C° 0 mm 2 m/S 739 mmHg 87%
    04:00 +9°C° 0 mm 2 m/S 739 mmHg 88%
    05:00 +9°C° 0 mm 2 m/S 739 mmHg 88%
    06:00 +11°C° 0 mm 3 m/S 739 mmHg 83%
    07:00 +13°C° 0 mm 3 m/S 739 mmHg 77%
    08:00 +15°C° 0 mm 4 m/S 739 mmHg 72%
    09:00 +17°C° 0 mm 4 m/S 740 mmHg 68%
    10:00 +19°C° 0 mm 4 m/S 740 mmHg 63%
    11:00 +20°C° 0 mm 4 m/S 740 mmHg 59%
    12:00 +21°C° 0 mm 4 m/S 740 mmHg 57%
    13:00 +22°C° 0 mm 4 m/S 740 mmHg 56%
    14:00 +22°C° 0 mm 4 m/S 739 mmHg 54%
    15:00 +22°C° 0 mm 4 m/S 739 mmHg 55%
    16:00 +22°C° 0 mm 4 m/S 739 mmHg 56%
    17:00 +22°C° 0 mm 4 m/S 739 mmHg 57%
    18:00 +20°C° 0 mm 4 m/S 739 mmHg 63%
    19:00 +18°C° 0 mm 3 m/S 739 mmHg 68%
    20:00 +17°C° 0 mm 3 m/S 739 mmHg 73%
    21:00 +16°C° 0 mm 3 m/S 739 mmHg 74%
    22:00 +14°C° 0 mm 3 m/S 739 mmHg 74%
    23:00 +13°C° 0 mm 3 m/S 739 mmHg 75%

    übermorgen, 23 Mai, Mittwoch

    Zeit Temperatur Niederschläge Wind Luftdruck Luftfeuchtigkeit
    00:00 +13°C° 0 mm 3 m/S 739 mmHg 75%
    01:00 +13°C° 0 mm 3 m/S 739 mmHg 75%
    02:00 +12°C° 0 mm 3 m/S 739 mmHg 75%
    03:00 +12°C° 0 mm 3 m/S 739 mmHg 76%
    04:00 +12°C° 0 mm 3 m/S 739 mmHg 77%
    05:00 +12°C° 0 mm 3 m/S 739 mmHg 79%
    06:00 +14°C° 0 mm 3 m/S 739 mmHg 75%
    07:00 +17°C° 0 mm 3 m/S 740 mmHg 71%
    08:00 +19°C° 0 mm 4 m/S 740 mmHg 68%
    09:00 +20°C° 0 mm 4 m/S 740 mmHg 63%
    10:00 +22°C° 0 mm 4 m/S 740 mmHg 59%
    11:00 +23°C° 0 mm 4 m/S 740 mmHg 54%
    12:00 +25°C° 0 mm 4 m/S 740 mmHg 51%
    13:00 +25°C° 0 mm 3 m/S 740 mmHg 49%
    14:00 +26°C° 0 mm 3 m/S 739 mmHg 46%
    15:00 +26°C° 0 mm 3 m/S 739 mmHg 46%
    16:00 +26°C° 0 mm 3 m/S 739 mmHg 47%
    17:00 +26°C° 0 mm 2 m/S 739 mmHg 48%
    18:00 +24°C° 0 mm 2 m/S 739 mmHg 53%
    19:00 +21°C° 0 mm 2 m/S 739 mmHg 57%
    20:00 +19°C° 0 mm 2 m/S 739 mmHg 62%
    21:00 +18°C° 0 mm 2 m/S 739 mmHg 64%
    22:00 +17°C° 0 mm 2 m/S 739 mmHg 66%
    23:00 +16°C° 0 mm 2 m/S 739 mmHg 68%

    24 Mai, Donnerstag

    Zeit Temperatur Niederschläge Wind Luftdruck Luftfeuchtigkeit
    00:00 +16°C° 0 mm 2 m/S 738 mmHg 70%
    01:00 +16°C° 0 mm 2 m/S 738 mmHg 73%
    02:00 +15°C° 0 mm 2 m/S 738 mmHg 75%
    03:00 +15°C° 0 mm 2 m/S 738 mmHg 77%
    04:00 +15°C° 0 mm 2 m/S 738 mmHg 80%
    05:00 +14°C° 0 mm 2 m/S 738 mmHg 82%
    06:00 +16°C° 0 mm 2 m/S 738 mmHg 77%
    07:00 +18°C° 0 mm 2 m/S 738 mmHg 72%
    08:00 +21°C° 0 mm 3 m/S 739 mmHg 67%
    09:00 +22°C° 0 mm 3 m/S 739 mmHg 63%
    10:00 +24°C° 0 mm 3 m/S 739 mmHg 58%
    11:00 +25°C° 0 mm 4 m/S 739 mmHg 54%
    12:00 +26°C° 0 mm 4 m/S 738 mmHg 52%
    13:00 +26°C° 0 mm 4 m/S 738 mmHg 51%
    14:00 +26°C° 0 mm 4 m/S 737 mmHg 50%
    15:00 +26°C° 0 mm 4 m/S 737 mmHg 53%
    16:00 +26°C° 0 mm 4 m/S 737 mmHg 55%
    17:00 +26°C° 0 mm 4 m/S 737 mmHg 58%
    18:00 +23°C° 0,1 mm 4 m/S 737 mmHg 65%
    19:00 +21°C° 0,1 mm 3 m/S 737 mmHg 72%
    20:00 +19°C° 0,1 mm 3 m/S 737 mmHg 78%
    21:00 +19°C° 0 mm 3 m/S 737 mmHg 81%
    22:00 +18°C° 0 mm 3 m/S 737 mmHg 84%
    23:00 +17°C° 0 mm 3 m/S 737 mmHg 87%

    25 Mai, Freitag

    Zeit Temperatur Niederschläge Wind Luftdruck Luftfeuchtigkeit
    00:00 +17°C° 0 mm 3 m/S 737 mmHg 89%
    01:00 +16°C° 0 mm 3 m/S 737 mmHg 91%
    02:00 +15°C° 0 mm 4 m/S 737 mmHg 93%
    03:00 +15°C° 0 mm 4 m/S 737 mmHg 93%
    04:00 +14°C° 0 mm 4 m/S 737 mmHg 93%
    05:00 +14°C° 0 mm 4 m/S 737 mmHg 93%
    06:00 +16°C° 0 mm 5 m/S 737 mmHg 88%
    07:00 +17°C° 0 mm 5 m/S 737 mmHg 83%
    08:00 +19°C° 0 mm 5 m/S 738 mmHg 77%
    09:00 +21°C° 0 mm 6 m/S 738 mmHg 71%
    10:00 +22°C° 0 mm 6 m/S 738 mmHg 64%
    11:00 +23°C° 0 mm 7 m/S 738 mmHg 58%
    12:00 +24°C° 0 mm 7 m/S 738 mmHg 57%
    13:00 +24°C° 0 mm 7 m/S 738 mmHg 56%
    14:00 +24°C° 0 mm 7 m/S 738 mmHg 56%
    15:00 +24°C° 0,1 mm 7 m/S 738 mmHg 58%
    16:00 +23°C° 0,1 mm 7 m/S 738 mmHg 60%
    17:00 +23°C° 0,1 mm 6 m/S 738 mmHg 62%
    18:00 +21°C° 0 mm 6 m/S 738 mmHg 67%
    19:00 +20°C° 0 mm 5 m/S 738 mmHg 73%
    20:00 +18°C° 0 mm 4 m/S 738 mmHg 78%
    21:00 +18°C° 0 mm 4 m/S 739 mmHg 80%
    22:00 +17°C° 0 mm 4 m/S 739 mmHg 82%
    23:00 +15°C° 0 mm 4 m/S 740 mmHg 84%

    26 Mai, Samstag

    Zeit Temperatur Niederschläge Wind Luftdruck Luftfeuchtigkeit
    00:00 +14°C° 0 mm 5 m/S 740 mmHg 83%
    01:00 +13°C° 0 mm 5 m/S 740 mmHg 83%
    02:00 +12°C° 0 mm 5 m/S 740 mmHg 83%
    03:00 +10°C° 0 mm 5 m/S 741 mmHg 82%
    04:00 +10°C° 0 mm 5 m/S 741 mmHg 81%
    05:00 +9°C° 0 mm 5 m/S 742 mmHg 80%
    06:00 +10°C° 0 mm 5 m/S 742 mmHg 75%
    07:00 +12°C° 0 mm 5 m/S 743 mmHg 69%
    08:00 +13°C° 0 mm 6 m/S 743 mmHg 64%
    09:00 +14°C° 0 mm 6 m/S 744 mmHg 61%
    10:00 +15°C° 0 mm 6 m/S 744 mmHg 57%
    11:00 +16°C° 0 mm 6 m/S 744 mmHg 53%
    12:00 +16°C° 0 mm 6 m/S 744 mmHg 52%
    13:00 +17°C° 0 mm 6 m/S 744 mmHg 51%
    14:00 +17°C° 0 mm 5 m/S 744 mmHg 50%
    15:00 +17°C° 0 mm 5 m/S 744 mmHg 51%
    16:00 +17°C° 0 mm 5 m/S 745 mmHg 52%
    17:00 +16°C° 0 mm 5 m/S 745 mmHg 54%
    18:00 +15°C° 0 mm 4 m/S 745 mmHg 59%
    19:00 +13°C° 0 mm 4 m/S 745 mmHg 65%
    20:00 +11°C° 0 mm 3 m/S 745 mmHg 71%
    21:00 +11°C° 0 mm 3 m/S 745 mmHg 73%
    22:00 +10°C° 0 mm 3 m/S 746 mmHg 75%
    23:00 +9°C° 0 mm 3 m/S 746 mmHg 77%
    Mehr zeigen